#datetime,building,power
2022-07-08T00:00:00,mfh,25.02
2022-07-08T00:01:00,mfh,24.70
2022-07-08T00:02:00,mfh,24.69
2022-07-08T00:03:00,mfh,24.62
2022-07-08T00:04:00,mfh,25.85
2022-07-08T00:05:00,mfh,25.34
2022-07-08T00:06:00,mfh,25.31
2022-07-08T00:07:00,mfh,25.22
2022-07-08T00:08:00,mfh,24.48
2022-07-08T00:09:00,mfh,24.57
2022-07-08T00:10:00,mfh,25.36
2022-07-08T00:11:00,mfh,24.85
2022-07-08T00:12:00,mfh,24.83
2022-07-08T00:13:00,mfh,26.26
2022-07-08T00:14:00,mfh,25.40
2022-07-08T00:15:00,mfh,25.44
2022-07-08T00:16:00,mfh,24.75
2022-07-08T00:17:00,mfh,24.94
2022-07-08T00:18:00,mfh,24.88
2022-07-08T00:19:00,mfh,24.96
2022-07-08T00:20:00,mfh,25.62
2022-07-08T00:21:00,mfh,25.41
2022-07-08T00:22:00,mfh,25.36
2022-07-08T00:23:00,mfh,25.71
2022-07-08T00:24:00,mfh,24.69
2022-07-08T00:25:00,mfh,24.68
2022-07-08T00:26:00,mfh,24.61
2022-07-08T00:27:00,mfh,24.61
2022-07-08T00:28:00,mfh,24.69
2022-07-08T00:29:00,mfh,25.36
2022-07-08T00:30:00,mfh,25.37
2022-07-08T00:31:00,mfh,25.23
2022-07-08T00:32:00,mfh,24.56
2022-07-08T00:33:00,mfh,24.57
2022-07-08T00:34:00,mfh,25.24
2022-07-08T00:35:00,mfh,24.85
2022-07-08T00:36:00,mfh,25.40
2022-07-08T00:37:00,mfh,25.38
2022-07-08T00:38:00,mfh,26.66
2022-07-08T00:39:00,mfh,25.52
2022-07-08T00:40:00,mfh,24.76
2022-07-08T00:41:00,mfh,24.75
2022-07-08T00:42:00,mfh,24.75
2022-07-08T00:43:00,mfh,25.19
2022-07-08T00:44:00,mfh,24.72
2022-07-08T00:45:00,mfh,25.34
2022-07-08T00:46:00,mfh,25.51
2022-07-08T00:47:00,mfh,25.44
2022-07-08T00:48:00,mfh,25.43
2022-07-08T00:49:00,mfh,24.72
2022-07-08T00:50:00,mfh,24.65
2022-07-08T00:51:00,mfh,24.57
2022-07-08T00:52:00,mfh,24.63
2022-07-08T00:53:00,mfh,25.72
2022-07-08T00:54:00,mfh,25.28
2022-07-08T00:55:00,mfh,25.93
2022-07-08T00:56:00,mfh,24.63
2022-07-08T00:57:00,mfh,24.83
2022-07-08T00:58:00,mfh,24.77
2022-07-08T00:59:00,mfh,24.62
2022-07-08T01:00:00,mfh,24.63
2022-07-08T01:01:00,mfh,25.50
2022-07-08T01:02:00,mfh,25.68
2022-07-08T01:03:00,mfh,25.58
2022-07-08T01:04:00,mfh,25.75
2022-07-08T01:05:00,mfh,24.82
2022-07-08T01:06:00,mfh,24.80
2022-07-08T01:07:00,mfh,24.80
2022-07-08T01:08:00,mfh,24.88
2022-07-08T01:09:00,mfh,25.42
2022-07-08T01:10:00,mfh,25.34
2022-07-08T01:11:00,mfh,25.37
2022-07-08T01:12:00,mfh,25.38
2022-07-08T01:13:00,mfh,24.51
2022-07-08T01:14:00,mfh,24.48
2022-07-08T01:15:00,mfh,24.59
2022-07-08T01:16:00,mfh,24.65
2022-07-08T01:17:00,mfh,25.24
2022-07-08T01:18:00,mfh,25.84
2022-07-08T01:19:00,mfh,25.22
2022-07-08T01:20:00,mfh,25.26
2022-07-08T01:21:00,mfh,24.56
2022-07-08T01:22:00,mfh,24.60
2022-07-08T01:23:00,mfh,24.56
2022-07-08T01:24:00,mfh,24.80
2022-07-08T01:25:00,mfh,25.33
2022-07-08T01:26:00,mfh,25.30
2022-07-08T01:27:00,mfh,25.61
2022-07-08T01:28:00,mfh,25.59
2022-07-08T01:29:00,mfh,24.93
2022-07-08T01:30:00,mfh,24.93
2022-07-08T01:31:00,mfh,24.91
2022-07-08T01:32:00,mfh,24.91
2022-07-08T01:33:00,mfh,25.83
2022-07-08T01:34:00,mfh,25.70
2022-07-08T01:35:00,mfh,25.68
2022-07-08T01:36:00,mfh,25.55
2022-07-08T01:37:00,mfh,24.97
2022-07-08T01:38:00,mfh,24.69
2022-07-08T01:39:00,mfh,25.97
2022-07-08T01:40:00,mfh,25.36
2022-07-08T01:41:00,mfh,26.00
2022-07-08T01:42:00,mfh,26.78
2022-07-08T01:43:00,mfh,26.14
2022-07-08T01:44:00,mfh,26.15
2022-07-08T01:45:00,mfh,25.40
2022-07-08T01:46:00,mfh,24.79
2022-07-08T01:47:00,mfh,24.77
2022-07-08T01:48:00,mfh,24.62
2022-07-08T01:49:00,mfh,24.54
2022-07-08T01:50:00,mfh,25.09
2022-07-08T01:51:00,mfh,25.55
2022-07-08T01:52:00,mfh,25.48
2022-07-08T01:53:00,mfh,24.76
2022-07-08T01:54:00,mfh,24.67
2022-07-08T01:55:00,mfh,24.70
2022-07-08T01:56:00,mfh,25.13
2022-07-08T01:57:00,mfh,37.52
2022-07-08T01:58:00,mfh,45.59
2022-07-08T01:59:00,mfh,54.82
2022-07-08T02:00:00,mfh,54.97
2022-07-08T02:01:00,mfh,53.93
2022-07-08T02:02:00,mfh,53.50
2022-07-08T02:03:00,mfh,53.10
2022-07-08T02:04:00,mfh,52.77
2022-07-08T02:05:00,mfh,53.59
2022-07-08T02:06:00,mfh,53.16
2022-07-08T02:07:00,mfh,53.11
2022-07-08T02:08:00,mfh,52.90
2022-07-08T02:09:00,mfh,44.49
2022-07-08T02:10:00,mfh,32.47
2022-07-08T02:11:00,mfh,32.39
2022-07-08T02:12:00,mfh,32.38
2022-07-08T02:13:00,mfh,32.91
2022-07-08T02:14:00,mfh,33.01
2022-07-08T02:15:00,mfh,25.42
2022-07-08T02:16:00,mfh,25.50
2022-07-08T02:17:00,mfh,23.77
2022-07-08T02:18:00,mfh,23.99
2022-07-08T02:19:00,mfh,23.98
2022-07-08T02:20:00,mfh,24.06
2022-07-08T02:21:00,mfh,24.06
2022-07-08T02:22:00,mfh,24.69
2022-07-08T02:23:00,mfh,24.52
2022-07-08T02:24:00,mfh,24.47
2022-07-08T02:25:00,mfh,23.74
2022-07-08T02:26:00,mfh,23.80
2022-07-08T02:27:00,mfh,24.22
2022-07-08T02:28:00,mfh,23.72
2022-07-08T02:29:00,mfh,23.60
2022-07-08T02:30:00,mfh,24.24
2022-07-08T02:31:00,mfh,25.10
2022-07-08T02:32:00,mfh,24.17
2022-07-08T02:33:00,mfh,23.94
2022-07-08T02:34:00,mfh,23.51
2022-07-08T02:35:00,mfh,24.20
2022-07-08T02:36:00,mfh,24.17
2022-07-08T02:37:00,mfh,23.49
2022-07-08T02:38:00,mfh,24.66
2022-07-08T02:39:00,mfh,24.98
2022-07-08T02:40:00,mfh,25.17
2022-07-08T02:41:00,mfh,23.45
2022-07-08T02:42:00,mfh,23.37
2022-07-08T02:43:00,mfh,23.60
2022-07-08T02:44:00,mfh,23.69
2022-07-08T02:45:00,mfh,23.81
2022-07-08T02:46:00,mfh,24.39
2022-07-08T02:47:00,mfh,24.45
2022-07-08T02:48:00,mfh,24.58
2022-07-08T02:49:00,mfh,24.55
2022-07-08T02:50:00,mfh,23.88
2022-07-08T02:51:00,mfh,23.97
2022-07-08T02:52:00,mfh,23.95
2022-07-08T02:53:00,mfh,23.87
2022-07-08T02:54:00,mfh,25.38
2022-07-08T02:55:00,mfh,24.33
2022-07-08T02:56:00,mfh,24.33
2022-07-08T02:57:00,mfh,24.88
2022-07-08T02:58:00,mfh,23.71
2022-07-08T02:59:00,mfh,23.63
2022-07-08T03:00:00,mfh,23.60
2022-07-08T03:01:00,mfh,23.61
2022-07-08T03:02:00,mfh,24.31
2022-07-08T03:03:00,mfh,24.28
2022-07-08T03:04:00,mfh,24.31
2022-07-08T03:05:00,mfh,24.30
2022-07-08T03:06:00,mfh,23.73
2022-07-08T03:07:00,mfh,23.73
2022-07-08T03:08:00,mfh,23.76
2022-07-08T03:09:00,mfh,23.80
2022-07-08T03:10:00,mfh,24.47
2022-07-08T03:11:00,mfh,24.45
2022-07-08T03:12:00,mfh,33.17
2022-07-08T03:13:00,mfh,33.11
2022-07-08T03:14:00,mfh,33.15
2022-07-08T03:15:00,mfh,33.57
2022-07-08T03:16:00,mfh,33.04
2022-07-08T03:17:00,mfh,33.10
2022-07-08T03:18:00,mfh,33.60
2022-07-08T03:19:00,mfh,33.68
2022-07-08T03:20:00,mfh,33.68
2022-07-08T03:21:00,mfh,33.48
2022-07-08T03:22:00,mfh,32.70
2022-07-08T03:23:00,mfh,32.67
2022-07-08T03:24:00,mfh,32.72
2022-07-08T03:25:00,mfh,32.75
2022-07-08T03:26:00,mfh,33.38
2022-07-08T03:27:00,mfh,33.30
2022-07-08T03:28:00,mfh,33.77
2022-07-08T03:29:00,mfh,33.98
2022-07-08T03:30:00,mfh,32.63
2022-07-08T03:31:00,mfh,32.56
2022-07-08T03:32:00,mfh,32.71
2022-07-08T03:33:00,mfh,32.71
2022-07-08T03:34:00,mfh,34.07
2022-07-08T03:35:00,mfh,33.65
2022-07-08T03:36:00,mfh,33.58
2022-07-08T03:37:00,mfh,33.59
2022-07-08T03:38:00,mfh,32.99
2022-07-08T03:39:00,mfh,32.99
2022-07-08T03:40:00,mfh,32.93
2022-07-08T03:41:00,mfh,32.98
2022-07-08T03:42:00,mfh,33.70
2022-07-08T03:43:00,mfh,33.79
2022-07-08T03:44:00,mfh,33.77
2022-07-08T03:45:00,mfh,33.72
2022-07-08T03:46:00,mfh,32.85
2022-07-08T03:47:00,mfh,32.84
2022-07-08T03:48:00,mfh,32.85
2022-07-08T03:49:00,mfh,32.78
2022-07-08T03:50:00,mfh,33.42
2022-07-08T03:51:00,mfh,33.25
2022-07-08T03:52:00,mfh,33.51
2022-07-08T03:53:00,mfh,33.48
2022-07-08T03:54:00,mfh,32.70
2022-07-08T03:55:00,mfh,32.71
2022-07-08T03:56:00,mfh,33.51
2022-07-08T03:57:00,mfh,33.32
2022-07-08T03:58:00,mfh,32.82
2022-07-08T03:59:00,mfh,33.59
2022-07-08T04:00:00,mfh,33.66
2022-07-08T04:01:00,mfh,34.48
2022-07-08T04:02:00,mfh,34.47
2022-07-08T04:03:00,mfh,34.09
2022-07-08T04:04:00,mfh,33.59
2022-07-08T04:05:00,mfh,32.78
2022-07-08T04:06:00,mfh,33.20
2022-07-08T04:07:00,mfh,33.46
2022-07-08T04:08:00,mfh,33.62
2022-07-08T04:09:00,mfh,33.64
2022-07-08T04:10:00,mfh,34.07
2022-07-08T04:11:00,mfh,32.81
2022-07-08T04:12:00,mfh,33.01
2022-07-08T04:13:00,mfh,32.90
2022-07-08T04:14:00,mfh,32.96
2022-07-08T04:15:00,mfh,33.56
2022-07-08T04:16:00,mfh,33.59
2022-07-08T04:17:00,mfh,33.58
2022-07-08T04:18:00,mfh,33.58
2022-07-08T04:19:00,mfh,32.92
2022-07-08T04:20:00,mfh,32.94
2022-07-08T04:21:00,mfh,32.87
2022-07-08T04:22:00,mfh,33.63
2022-07-08T04:23:00,mfh,33.22
2022-07-08T04:24:00,mfh,33.23
2022-07-08T04:25:00,mfh,33.48
2022-07-08T04:26:00,mfh,33.40
2022-07-08T04:27:00,mfh,32.64
2022-07-08T04:28:00,mfh,32.65
2022-07-08T04:29:00,mfh,32.71
2022-07-08T04:30:00,mfh,32.71
2022-07-08T04:31:00,mfh,33.22
2022-07-08T04:32:00,mfh,33.23
2022-07-08T04:33:00,mfh,33.24
2022-07-08T04:34:00,mfh,32.56
2022-07-08T04:35:00,mfh,36.52
2022-07-08T04:36:00,mfh,37.27
2022-07-08T04:37:00,mfh,36.62
2022-07-08T04:38:00,mfh,36.59
2022-07-08T04:39:00,mfh,37.36
2022-07-08T04:40:00,mfh,37.40
2022-07-08T04:41:00,mfh,37.09
2022-07-08T04:42:00,mfh,37.15
2022-07-08T04:43:00,mfh,37.48
2022-07-08T04:44:00,mfh,36.92
2022-07-08T04:45:00,mfh,37.29
2022-07-08T04:46:00,mfh,36.81
2022-07-08T04:47:00,mfh,37.75
2022-07-08T04:48:00,mfh,37.48
2022-07-08T04:49:00,mfh,37.48
2022-07-08T04:50:00,mfh,37.75
2022-07-08T04:51:00,mfh,37.14
2022-07-08T04:52:00,mfh,36.84
2022-07-08T04:53:00,mfh,37.27
2022-07-08T04:54:00,mfh,37.10
2022-07-08T04:55:00,mfh,37.57
2022-07-08T04:56:00,mfh,37.52
2022-07-08T04:57:00,mfh,37.50
2022-07-08T04:58:00,mfh,37.98
2022-07-08T04:59:00,mfh,37.00
2022-07-08T05:00:00,mfh,37.07
2022-07-08T05:01:00,mfh,52.55
2022-07-08T05:02:00,mfh,52.90
2022-07-08T05:03:00,mfh,53.17
2022-07-08T05:04:00,mfh,52.95
2022-07-08T05:05:00,mfh,52.99
2022-07-08T05:06:00,mfh,53.08
2022-07-08T05:07:00,mfh,53.07
2022-07-08T05:08:00,mfh,52.37
2022-07-08T05:09:00,mfh,51.61
2022-07-08T05:10:00,mfh,51.04
2022-07-08T05:11:00,mfh,51.83
2022-07-08T05:12:00,mfh,51.79
2022-07-08T05:13:00,mfh,51.95
2022-07-08T05:14:00,mfh,51.97
2022-07-08T05:15:00,mfh,51.84
2022-07-08T05:16:00,mfh,51.46
2022-07-08T05:17:00,mfh,51.95
2022-07-08T05:18:00,mfh,52.02
2022-07-08T05:19:00,mfh,52.95
2022-07-08T05:20:00,mfh,53.36
2022-07-08T05:21:00,mfh,53.36
2022-07-08T05:22:00,mfh,53.38
2022-07-08T05:23:00,mfh,53.46
2022-07-08T05:24:00,mfh,53.58
2022-07-08T05:25:00,mfh,52.78
2022-07-08T05:26:00,mfh,52.72
2022-07-08T05:27:00,mfh,52.51
2022-07-08T05:28:00,mfh,53.07
2022-07-08T05:29:00,mfh,52.70
2022-07-08T05:30:00,mfh,52.42
2022-07-08T05:31:00,mfh,52.53
2022-07-08T05:32:00,mfh,52.36
2022-07-08T05:33:00,mfh,52.48
2022-07-08T05:34:00,mfh,51.78
2022-07-08T05:35:00,mfh,52.23
2022-07-08T05:36:00,mfh,52.16
2022-07-08T05:37:00,mfh,52.80
2022-07-08T05:38:00,mfh,52.76
2022-07-08T05:39:00,mfh,52.76
2022-07-08T05:40:00,mfh,52.87
2022-07-08T05:41:00,mfh,53.47
2022-07-08T05:42:00,mfh,52.45
2022-07-08T05:43:00,mfh,52.72
2022-07-08T05:44:00,mfh,52.93
2022-07-08T05:45:00,mfh,52.36
2022-07-08T05:46:00,mfh,53.11
2022-07-08T05:47:00,mfh,53.09
2022-07-08T05:48:00,mfh,52.96
2022-07-08T05:49:00,mfh,52.96
2022-07-08T05:50:00,mfh,52.95
2022-07-08T05:51:00,mfh,52.11
2022-07-08T05:52:00,mfh,51.94
2022-07-08T05:53:00,mfh,51.86
2022-07-08T05:54:00,mfh,52.45
2022-07-08T05:55:00,mfh,52.97
2022-07-08T05:56:00,mfh,52.96
2022-07-08T05:57:00,mfh,53.03
2022-07-08T05:58:00,mfh,52.38
2022-07-08T05:59:00,mfh,51.76
2022-07-08T06:00:00,mfh,51.74
2022-07-08T06:01:00,mfh,51.73
2022-07-08T06:02:00,mfh,51.68
2022-07-08T06:03:00,mfh,52.30
2022-07-08T06:04:00,mfh,52.13
2022-07-08T06:05:00,mfh,52.21
2022-07-08T06:06:00,mfh,52.32
2022-07-08T06:07:00,mfh,52.81
2022-07-08T06:08:00,mfh,52.50
2022-07-08T06:09:00,mfh,52.57
2022-07-08T06:10:00,mfh,52.58
2022-07-08T06:11:00,mfh,53.19
2022-07-08T06:12:00,mfh,53.25
2022-07-08T06:13:00,mfh,53.34
2022-07-08T06:14:00,mfh,54.01
2022-07-08T06:15:00,mfh,53.56
2022-07-08T06:16:00,mfh,52.68
2022-07-08T06:17:00,mfh,52.48
2022-07-08T06:18:00,mfh,52.60
2022-07-08T06:19:00,mfh,53.39
2022-07-08T06:20:00,mfh,52.60
2022-07-08T06:21:00,mfh,53.34
2022-07-08T06:22:00,mfh,52.59
2022-07-08T06:23:00,mfh,51.58
2022-07-08T06:24:00,mfh,52.05
2022-07-08T06:25:00,mfh,51.18
2022-07-08T06:26:00,mfh,51.44
2022-07-08T06:27:00,mfh,51.39
2022-07-08T06:28:00,mfh,51.92
2022-07-08T06:29:00,mfh,51.90
2022-07-08T06:30:00,mfh,51.69
2022-07-08T06:31:00,mfh,52.10
2022-07-08T06:32:00,mfh,51.90
2022-07-08T06:33:00,mfh,50.86
2022-07-08T06:34:00,mfh,50.76
2022-07-08T06:35:00,mfh,50.70
2022-07-08T06:36:00,mfh,51.97
2022-07-08T06:37:00,mfh,52.05
2022-07-08T06:38:00,mfh,52.52
2022-07-08T06:39:00,mfh,52.16
2022-07-08T06:40:00,mfh,52.74
2022-07-08T06:41:00,mfh,51.86
2022-07-08T06:42:00,mfh,51.01
2022-07-08T06:43:00,mfh,51.44
2022-07-08T06:44:00,mfh,51.20
2022-07-08T06:45:00,mfh,51.48
2022-07-08T06:46:00,mfh,52.54
2022-07-08T06:47:00,mfh,51.32
2022-07-08T06:48:00,mfh,51.65
2022-07-08T06:49:00,mfh,51.97
2022-07-08T06:50:00,mfh,50.72
2022-07-08T06:51:00,mfh,50.51
2022-07-08T06:52:00,mfh,50.78
2022-07-08T06:53:00,mfh,50.55
2022-07-08T06:54:00,mfh,51.13
2022-07-08T06:55:00,mfh,51.27
2022-07-08T06:56:00,mfh,51.63
2022-07-08T06:57:00,mfh,50.23
2022-07-08T06:58:00,mfh,50.83
2022-07-08T06:59:00,mfh,49.46
2022-07-08T07:00:00,mfh,49.66
2022-07-08T07:01:00,mfh,49.78
2022-07-08T07:02:00,mfh,49.79
2022-07-08T07:03:00,mfh,50.45
2022-07-08T07:04:00,mfh,50.53
2022-07-08T07:05:00,mfh,50.38
2022-07-08T07:06:00,mfh,50.21
2022-07-08T07:07:00,mfh,51.00
2022-07-08T07:08:00,mfh,50.57
2022-07-08T07:09:00,mfh,50.23
2022-07-08T07:10:00,mfh,50.16
2022-07-08T07:11:00,mfh,50.82
2022-07-08T07:12:00,mfh,50.86
2022-07-08T07:13:00,mfh,51.09
2022-07-08T07:14:00,mfh,51.07
2022-07-08T07:15:00,mfh,52.23
2022-07-08T07:16:00,mfh,51.74
2022-07-08T07:17:00,mfh,52.19
2022-07-08T07:18:00,mfh,51.80
2022-07-08T07:19:00,mfh,51.91
2022-07-08T07:20:00,mfh,52.57
2022-07-08T07:21:00,mfh,52.58
2022-07-08T07:22:00,mfh,50.96
2022-07-08T07:23:00,mfh,51.19
2022-07-08T07:24:00,mfh,51.07
2022-07-08T07:25:00,mfh,51.04
2022-07-08T07:26:00,mfh,50.97
2022-07-08T07:27:00,mfh,50.29
2022-07-08T07:28:00,mfh,50.89
2022-07-08T07:29:00,mfh,50.89
2022-07-08T07:30:00,mfh,51.95
2022-07-08T07:31:00,mfh,51.06
2022-07-08T07:32:00,mfh,50.69
2022-07-08T07:33:00,mfh,50.77
2022-07-08T07:34:00,mfh,50.89
2022-07-08T07:35:00,mfh,50.87
2022-07-08T07:36:00,mfh,50.23
2022-07-08T07:37:00,mfh,50.45
2022-07-08T07:38:00,mfh,50.55
2022-07-08T07:39:00,mfh,50.56
2022-07-08T07:40:00,mfh,50.57
2022-07-08T07:41:00,mfh,50.43
2022-07-08T07:42:00,mfh,50.10
2022-07-08T07:43:00,mfh,49.78
2022-07-08T07:44:00,mfh,49.81
2022-07-08T07:45:00,mfh,50.07
2022-07-08T07:46:00,mfh,50.65
2022-07-08T07:47:00,mfh,50.57
2022-07-08T07:48:00,mfh,50.68
2022-07-08T07:49:00,mfh,50.71
2022-07-08T07:50:00,mfh,50.72
2022-07-08T07:51:00,mfh,49.84
2022-07-08T07:52:00,mfh,50.06
2022-07-08T07:53:00,mfh,50.59
2022-07-08T07:54:00,mfh,51.11
2022-07-08T07:55:00,mfh,50.63
2022-07-08T07:56:00,mfh,50.41
2022-07-08T07:57:00,mfh,50.45
2022-07-08T07:58:00,mfh,50.59
2022-07-08T07:59:00,mfh,49.89
2022-07-08T08:00:00,mfh,50.49
2022-07-08T08:01:00,mfh,49.95
2022-07-08T08:02:00,mfh,50.50
2022-07-08T08:03:00,mfh,50.57
2022-07-08T08:04:00,mfh,50.44
2022-07-08T08:05:00,mfh,50.48
2022-07-08T08:06:00,mfh,50.65
2022-07-08T08:07:00,mfh,50.53
2022-07-08T08:08:00,mfh,50.54
2022-07-08T08:09:00,mfh,49.83
2022-07-08T08:10:00,mfh,49.81
2022-07-08T08:11:00,mfh,50.04
2022-07-08T08:12:00,mfh,50.84
2022-07-08T08:13:00,mfh,50.57
2022-07-08T08:14:00,mfh,50.62
2022-07-08T08:15:00,mfh,50.63
2022-07-08T08:16:00,mfh,50.58
2022-07-08T08:17:00,mfh,49.80
2022-07-08T08:18:00,mfh,49.73
2022-07-08T08:19:00,mfh,50.04
2022-07-08T08:20:00,mfh,50.42
2022-07-08T08:21:00,mfh,50.30
2022-07-08T08:22:00,mfh,50.22
2022-07-08T08:23:00,mfh,50.36
2022-07-08T08:24:00,mfh,50.49
2022-07-08T08:25:00,mfh,50.24
2022-07-08T08:26:00,mfh,49.93
2022-07-08T08:27:00,mfh,49.99
2022-07-08T08:28:00,mfh,49.94
2022-07-08T08:29:00,mfh,50.55
2022-07-08T08:30:00,mfh,50.62
2022-07-08T08:31:00,mfh,50.65
2022-07-08T08:32:00,mfh,50.58
2022-07-08T08:33:00,mfh,50.71
2022-07-08T08:34:00,mfh,70.98
2022-07-08T08:35:00,mfh,73.65
2022-07-08T08:36:00,mfh,75.20
2022-07-08T08:37:00,mfh,74.84
2022-07-08T08:38:00,mfh,74.55
2022-07-08T08:39:00,mfh,73.94
2022-07-08T08:40:00,mfh,73.99
2022-07-08T08:41:00,mfh,74.13
2022-07-08T08:42:00,mfh,74.00
2022-07-08T08:43:00,mfh,73.12
2022-07-08T08:44:00,mfh,73.08
2022-07-08T08:45:00,mfh,73.61
2022-07-08T08:46:00,mfh,67.73
2022-07-08T08:47:00,mfh,67.60
2022-07-08T08:48:00,mfh,60.30
2022-07-08T08:49:00,mfh,59.35
2022-07-08T08:50:00,mfh,59.81
2022-07-08T08:51:00,mfh,58.70
2022-07-08T08:52:00,mfh,59.02
2022-07-08T08:53:00,mfh,59.04
2022-07-08T08:54:00,mfh,59.44
2022-07-08T08:55:00,mfh,60.12
2022-07-08T08:56:00,mfh,60.20
2022-07-08T08:57:00,mfh,52.65
2022-07-08T08:58:00,mfh,59.96
2022-07-08T08:59:00,mfh,61.25
2022-07-08T09:00:00,mfh,59.90
2022-07-08T09:01:00,mfh,59.17
2022-07-08T09:02:00,mfh,59.10
2022-07-08T09:03:00,mfh,59.71
2022-07-08T09:04:00,mfh,60.43
2022-07-08T09:05:00,mfh,60.37
2022-07-08T09:06:00,mfh,61.20
2022-07-08T09:07:00,mfh,61.56
2022-07-08T09:08:00,mfh,60.25
2022-07-08T09:09:00,mfh,60.23
2022-07-08T09:10:00,mfh,60.15
2022-07-08T09:11:00,mfh,61.39
2022-07-08T09:12:00,mfh,59.64
2022-07-08T09:13:00,mfh,59.59
2022-07-08T09:14:00,mfh,51.92
2022-07-08T09:15:00,mfh,51.91
2022-07-08T09:16:00,mfh,51.99
2022-07-08T09:17:00,mfh,51.24
2022-07-08T09:18:00,mfh,51.24
2022-07-08T09:19:00,mfh,51.81
2022-07-08T09:20:00,mfh,52.67
2022-07-08T09:21:00,mfh,52.16
2022-07-08T09:22:00,mfh,52.10
2022-07-08T09:23:00,mfh,52.03
2022-07-08T09:24:00,mfh,51.98
2022-07-08T09:25:00,mfh,51.32
2022-07-08T09:26:00,mfh,51.50
2022-07-08T09:27:00,mfh,51.44
2022-07-08T09:28:00,mfh,52.51
2022-07-08T09:29:00,mfh,52.95
2022-07-08T09:30:00,mfh,52.99
2022-07-08T09:31:00,mfh,52.86
2022-07-08T09:32:00,mfh,51.72
2022-07-08T09:33:00,mfh,52.55
2022-07-08T09:34:00,mfh,51.88
2022-07-08T09:35:00,mfh,51.19
2022-07-08T09:36:00,mfh,51.19
2022-07-08T09:37:00,mfh,50.86
2022-07-08T09:38:00,mfh,51.78
2022-07-08T09:39:00,mfh,53.05
2022-07-08T09:40:00,mfh,52.46
2022-07-08T09:41:00,mfh,52.44
2022-07-08T09:42:00,mfh,52.58
2022-07-08T09:43:00,mfh,51.62
2022-07-08T09:44:00,mfh,51.58
2022-07-08T09:45:00,mfh,51.46
2022-07-08T09:46:00,mfh,51.68
2022-07-08T09:47:00,mfh,51.81
2022-07-08T09:48:00,mfh,51.74
2022-07-08T09:49:00,mfh,51.77
2022-07-08T09:50:00,mfh,52.48
2022-07-08T09:51:00,mfh,52.58
2022-07-08T09:52:00,mfh,51.99
2022-07-08T09:53:00,mfh,51.27
2022-07-08T09:54:00,mfh,52.01
2022-07-08T09:55:00,mfh,52.63
2022-07-08T09:56:00,mfh,51.99
2022-07-08T09:57:00,mfh,52.00
2022-07-08T09:58:00,mfh,51.99
2022-07-08T09:59:00,mfh,52.41
2022-07-08T10:00:00,mfh,51.48
2022-07-08T10:01:00,mfh,58.56
2022-07-08T10:02:00,mfh,59.27
2022-07-08T10:03:00,mfh,59.82
2022-07-08T10:04:00,mfh,59.86
2022-07-08T10:05:00,mfh,59.75
2022-07-08T10:06:00,mfh,59.65
2022-07-08T10:07:00,mfh,59.64
2022-07-08T10:08:00,mfh,59.72
2022-07-08T10:09:00,mfh,58.90
2022-07-08T10:10:00,mfh,58.89
2022-07-08T10:11:00,mfh,58.62
2022-07-08T10:12:00,mfh,59.00
2022-07-08T10:13:00,mfh,58.90
2022-07-08T10:14:00,mfh,58.83
2022-07-08T10:15:00,mfh,58.85
2022-07-08T10:16:00,mfh,59.11
2022-07-08T10:17:00,mfh,51.12
2022-07-08T10:18:00,mfh,51.03
2022-07-08T10:19:00,mfh,51.16
2022-07-08T10:20:00,mfh,51.66
2022-07-08T10:21:00,mfh,51.83
2022-07-08T10:22:00,mfh,51.07
2022-07-08T10:23:00,mfh,51.77
2022-07-08T10:24:00,mfh,51.05
2022-07-08T10:25:00,mfh,59.75
2022-07-08T10:26:00,mfh,58.70
2022-07-08T10:27:00,mfh,58.78
2022-07-08T10:28:00,mfh,58.70
2022-07-08T10:29:00,mfh,58.60
2022-07-08T10:30:00,mfh,59.09
2022-07-08T10:31:00,mfh,59.28
2022-07-08T10:32:00,mfh,59.93
2022-07-08T10:33:00,mfh,59.48
2022-07-08T10:34:00,mfh,59.05
2022-07-08T10:35:00,mfh,58.41
2022-07-08T10:36:00,mfh,58.37
2022-07-08T10:37:00,mfh,58.40
2022-07-08T10:38:00,mfh,58.98
2022-07-08T10:39:00,mfh,58.88
2022-07-08T10:40:00,mfh,58.86
2022-07-08T10:41:00,mfh,51.31
2022-07-08T10:42:00,mfh,51.08
2022-07-08T10:43:00,mfh,51.37
2022-07-08T10:44:00,mfh,50.54
2022-07-08T10:45:00,mfh,50.54
2022-07-08T10:46:00,mfh,50.48
2022-07-08T10:47:00,mfh,51.13
2022-07-08T10:48:00,mfh,51.06
2022-07-08T10:49:00,mfh,51.08
2022-07-08T10:50:00,mfh,51.16
2022-07-08T10:51:00,mfh,51.11
2022-07-08T10:52:00,mfh,50.88
2022-07-08T10:53:00,mfh,51.46
2022-07-08T10:54:00,mfh,50.82
2022-07-08T10:55:00,mfh,50.69
2022-07-08T10:56:00,mfh,51.15
2022-07-08T10:57:00,mfh,51.16
2022-07-08T10:58:00,mfh,50.89
2022-07-08T10:59:00,mfh,50.84
2022-07-08T11:00:00,mfh,50.10
2022-07-08T11:01:00,mfh,50.74
2022-07-08T11:02:00,mfh,50.23
2022-07-08T11:03:00,mfh,50.27
2022-07-08T11:04:00,mfh,50.86
2022-07-08T11:05:00,mfh,51.25
2022-07-08T11:06:00,mfh,51.23
2022-07-08T11:07:00,mfh,51.62
2022-07-08T11:08:00,mfh,51.84
2022-07-08T11:09:00,mfh,51.46
2022-07-08T11:10:00,mfh,52.25
2022-07-08T11:11:00,mfh,51.91
2022-07-08T11:12:00,mfh,52.43
2022-07-08T11:13:00,mfh,52.28
2022-07-08T11:14:00,mfh,51.53
2022-07-08T11:15:00,mfh,51.69
2022-07-08T11:16:00,mfh,51.61
2022-07-08T11:17:00,mfh,51.70
2022-07-08T11:18:00,mfh,51.54
2022-07-08T11:19:00,mfh,51.20
2022-07-08T11:20:00,mfh,51.16
2022-07-08T11:21:00,mfh,51.64
2022-07-08T11:22:00,mfh,51.65
2022-07-08T11:23:00,mfh,51.69
2022-07-08T11:24:00,mfh,51.67
2022-07-08T11:25:00,mfh,43.51
2022-07-08T11:26:00,mfh,42.78
2022-07-08T11:27:00,mfh,43.37
2022-07-08T11:28:00,mfh,42.51
2022-07-08T11:29:00,mfh,43.20
2022-07-08T11:30:00,mfh,43.23
2022-07-08T11:31:00,mfh,43.24
2022-07-08T11:32:00,mfh,43.29
2022-07-08T11:33:00,mfh,43.29
2022-07-08T11:34:00,mfh,43.32
2022-07-08T11:35:00,mfh,42.86
2022-07-08T11:36:00,mfh,43.30
2022-07-08T11:37:00,mfh,42.61
2022-07-08T11:38:00,mfh,43.22
2022-07-08T11:39:00,mfh,43.18
2022-07-08T11:40:00,mfh,43.18
2022-07-08T11:41:00,mfh,43.07
2022-07-08T11:42:00,mfh,43.80
2022-07-08T11:43:00,mfh,43.42
2022-07-08T11:44:00,mfh,43.13
2022-07-08T11:45:00,mfh,43.08
2022-07-08T11:46:00,mfh,43.04
2022-07-08T11:47:00,mfh,43.65
2022-07-08T11:48:00,mfh,43.47
2022-07-08T11:49:00,mfh,43.59
2022-07-08T11:50:00,mfh,43.68
2022-07-08T11:51:00,mfh,44.26
2022-07-08T11:52:00,mfh,43.46
2022-07-08T11:53:00,mfh,43.14
2022-07-08T11:54:00,mfh,43.08
2022-07-08T11:55:00,mfh,43.76
2022-07-08T11:56:00,mfh,43.77
2022-07-08T11:57:00,mfh,43.22
2022-07-08T11:58:00,mfh,43.69
2022-07-08T11:59:00,mfh,44.14
2022-07-08T12:00:00,mfh,43.50
2022-07-08T12:01:00,mfh,43.79
2022-07-08T12:02:00,mfh,43.69
2022-07-08T12:03:00,mfh,43.80
2022-07-08T12:04:00,mfh,44.39
2022-07-08T12:05:00,mfh,44.14
2022-07-08T12:06:00,mfh,44.08
2022-07-08T12:07:00,mfh,44.92
2022-07-08T12:08:00,mfh,44.09
2022-07-08T12:09:00,mfh,43.51
2022-07-08T12:10:00,mfh,43.51
2022-07-08T12:11:00,mfh,43.52
2022-07-08T12:12:00,mfh,44.01
2022-07-08T12:13:00,mfh,44.04
2022-07-08T12:14:00,mfh,45.04
2022-07-08T12:15:00,mfh,43.45
2022-07-08T12:16:00,mfh,43.17
2022-07-08T12:17:00,mfh,43.02
2022-07-08T12:18:00,mfh,43.23
2022-07-08T12:19:00,mfh,43.15
2022-07-08T12:20:00,mfh,43.01
2022-07-08T12:21:00,mfh,42.98
2022-07-08T12:22:00,mfh,43.69
2022-07-08T12:23:00,mfh,43.69
2022-07-08T12:24:00,mfh,43.65
2022-07-08T12:25:00,mfh,43.72
2022-07-08T12:26:00,mfh,43.70
2022-07-08T12:27:00,mfh,43.01
2022-07-08T12:28:00,mfh,43.44
2022-07-08T12:29:00,mfh,43.44
2022-07-08T12:30:00,mfh,44.02
2022-07-08T12:31:00,mfh,44.71
2022-07-08T12:32:00,mfh,44.17
2022-07-08T12:33:00,mfh,44.94
2022-07-08T12:34:00,mfh,44.22
2022-07-08T12:35:00,mfh,43.54
2022-07-08T12:36:00,mfh,43.55
2022-07-08T12:37:00,mfh,43.41
2022-07-08T12:38:00,mfh,43.85
2022-07-08T12:39:00,mfh,44.01
2022-07-08T12:40:00,mfh,44.61
2022-07-08T12:41:00,mfh,44.34
2022-07-08T12:42:00,mfh,44.25
2022-07-08T12:43:00,mfh,44.38
2022-07-08T12:44:00,mfh,43.42
2022-07-08T12:45:00,mfh,42.94
2022-07-08T12:46:00,mfh,42.70
2022-07-08T12:47:00,mfh,43.27
2022-07-08T12:48:00,mfh,43.51
2022-07-08T12:49:00,mfh,43.54
2022-07-08T12:50:00,mfh,42.98
2022-07-08T12:51:00,mfh,42.94
2022-07-08T12:52:00,mfh,42.96
2022-07-08T12:53:00,mfh,42.44
2022-07-08T12:54:00,mfh,42.77
2022-07-08T12:55:00,mfh,42.73
2022-07-08T12:56:00,mfh,43.33
2022-07-08T12:57:00,mfh,43.49
2022-07-08T12:58:00,mfh,43.39
2022-07-08T12:59:00,mfh,43.50
2022-07-08T13:00:00,mfh,43.58
2022-07-08T13:01:00,mfh,42.91
2022-07-08T13:02:00,mfh,42.79
2022-07-08T13:03:00,mfh,42.87
2022-07-08T13:04:00,mfh,43.39
2022-07-08T13:05:00,mfh,43.38
2022-07-08T13:06:00,mfh,44.13
2022-07-08T13:07:00,mfh,43.82
2022-07-08T13:08:00,mfh,43.88
2022-07-08T13:09:00,mfh,43.82
2022-07-08T13:10:00,mfh,43.15
2022-07-08T13:11:00,mfh,42.88
2022-07-08T13:12:00,mfh,42.94
2022-07-08T13:13:00,mfh,43.94
2022-07-08T13:14:00,mfh,43.71
2022-07-08T13:15:00,mfh,43.63
2022-07-08T13:16:00,mfh,44.54
2022-07-08T13:17:00,mfh,43.64
2022-07-08T13:18:00,mfh,43.06